Kirksville, MO

3:17 AM CDT on April 21, 2018 (GMT -0500)
Kirksville Regional

Weather History for KIRK - January, 2015

Change the Weather History Date:

Thursday, January 8, 2015

  Actual Average Record
Temperature  
Mean Temperature 12 °F 26 °F  
Max Temperature 27 °F 35 °F 68 °F (2003)
Min Temperature -4 °F 17 °F -11 °F (1970)
Degree Days  
Heating Degree Days 53 39  
Month to date heating degree days 367 312  
Since 1 July heating degree days 2658 2655  
Cooling Degree Days 0 0  
Month to date cooling degree days 0 0  
Year to date cooling degree days 0 0  
Moisture  
Dew Point 6 °F    
Average Humidity 72    
Maximum Humidity 87    
Minimum Humidity 56    
Precipitation  
Precipitation 0.01 in 0.03 in 0.95 in (1937)
Month to date precipitation 0.28 0.26  
Year to date precipitation 0.28 0.26  
Sea Level Pressure  
Sea Level Pressure 30.27 in    
Wind  
Wind Speed 15 mph (WSW)    
Max Wind Speed 26 mph    
Max Gust Speed 39 mph    
Visibility 10 miles    
Events Snow    
T = Trace of Precipitation, MM = Missing Value Source: NWS Daily Summary

Daily Weather History Graph

Daily Weather History Graph

Search for Another Location

Airport or City:

Astronomy

Jan. 08, 2015 Rise Set
Actual Time 7:32 AM CST 5:01 PM CST
Civil Twilight 7:02 AM CST 5:31 PM CST
Nautical Twilight 6:28 AM CST 6:05 PM CST
Astronomical Twilight 5:55 AM CST 6:38 PM CST
Moon 8:41 PM CST (1/8) 9:18 AM CST (1/8)
Length of Visible Light 10h 29m
Length of Day
9h 29m
Waning Gibbous, 89% of the Moon is Illuminated
Jan 8
Waning Gibbous
Jan 13
Last Quarter
Jan 20
New
Jan 26
First Quarter
Feb 3
Full

Hourly Weather History & Observations

Time (CST) Temp. Windchill Dew Point Humidity Pressure Visibility Wind Dir Wind Speed Gust Speed Precip Events Conditions
12:55 AM -2.9 °F -11.2 °F -8.0 °F 79% 30.76 in 10.0 mi SSW 3.5 mph - N/A   Clear
1:55 AM -2.0 °F -15.4 °F -7.1 °F 79% 30.74 in 10.0 mi SW 6.9 mph - N/A   Clear
2:55 AM -0.9 °F -15.3 °F -7.1 °F 75% 30.71 in 10.0 mi SW 8.1 mph - N/A   Clear
3:55 AM -0.0 °F -16.3 °F -6.0 °F 76% 30.65 in 10.0 mi SW 10.4 mph - N/A   Clear
4:55 AM -0.0 °F -15.3 °F -5.1 °F 79% 30.60 in 10.0 mi South 9.2 mph - N/A   Clear
5:55 AM 1.9 °F -14.7 °F -4.0 °F 76% 30.53 in 10.0 mi SSW 11.5 mph - N/A   Clear
6:55 AM 3.0 °F -14.8 °F -4.0 °F 73% 30.46 in 10.0 mi SSW 13.8 mph 23.0 mph N/A   Clear
7:55 AM 3.9 °F -17.6 °F -2.9 °F 73% 30.40 in 10.0 mi SSW 21.9 mph 29.9 mph N/A   Partly Cloudy
8:55 AM 6.1 °F -15.7 °F -0.9 °F 73% 30.29 in 9.0 mi SSW 24.2 mph 33.4 mph 0.00 in Snow Light Snow
9:55 AM 8.1 °F -9.0 °F -0.0 °F 70% 30.25 in 10.0 mi SSW 15.0 mph 29.9 mph 0.00 in   Scattered Clouds
10:55 AM 12.0 °F -6.5 °F 1.0 °F 61% 30.20 in 10.0 mi SSW 20.7 mph 27.6 mph N/A   Scattered Clouds
11:55 AM 14.0 °F -3.9 °F 3.0 °F 62% 30.12 in 10.0 mi SSW 20.7 mph 26.5 mph 0.00 in   Overcast
12:55 PM 18.0 °F 3.6 °F 5.0 °F 57% 30.05 in 10.0 mi SW 15.0 mph 26.5 mph 0.00 in   Mostly Cloudy
1:55 PM 19.9 °F 4.3 °F 5.0 °F 52% 30.03 in 9.0 mi SW 19.6 mph 29.9 mph 0.00 in Snow Light Snow
2:55 PM 21.9 °F 7.8 °F 8.1 °F 55% 30.01 in 10.0 mi SW 17.3 mph 26.5 mph 0.00 in   Clear
3:55 PM 23.0 °F 10.1 °F 10.0 °F 58% 30.05 in 10.0 mi WSW 15.0 mph 23.0 mph N/A   Overcast
4:55 PM 24.1 °F 12.5 °F 12.0 °F 60% 30.08 in 10.0 mi WSW 12.7 mph - N/A   Overcast
5:13 PM 24.1 °F 13.1 °F 12.9 °F 62% 30.02 in 10.0 mi West 11.5 mph 20.7 mph N/A   Overcast
5:23 PM 25.0 °F 13.1 °F 14.0 °F 63% 30.01 in 10.0 mi West 13.8 mph 20.7 mph N/A   Overcast
5:55 PM 26.1 °F 14.5 °F 16.0 °F 66% 30.09 in 10.0 mi West 13.8 mph 21.9 mph N/A   Overcast
6:55 PM 27.0 °F 17.3 °F 18.0 °F 69% 30.11 in 10.0 mi West 10.4 mph - N/A   Overcast
7:45 PM 27.0 °F 13.9 °F 19.0 °F 72% 30.07 in 8.0 mi WNW 18.4 mph 27.6 mph 0.00 in Snow Light Snow
7:55 PM 26.1 °F 12.3 °F 19.9 °F 78% 30.14 in 4.0 mi NW 19.6 mph 32.2 mph 0.00 in Snow Light Snow
8:10 PM 26.1 °F 12.7 °F 17.1 °F 69% 30.10 in 9.0 mi NW 18.4 mph 29.9 mph 0.01 in Snow Light Snow
8:55 PM 23.0 °F 8.7 °F 14.0 °F 68% 30.21 in 9.0 mi NW 18.4 mph 31.1 mph 0.01 in Snow Light Snow
9:55 PM 19.0 °F 2.7 °F 12.0 °F 74% 30.25 in 9.0 mi NW 20.7 mph 32.2 mph 0.00 in Snow Light Snow
10:24 PM 17.1 °F -0.3 °F 6.1 °F 62% 30.22 in 9.0 mi NW 21.9 mph 33.4 mph 0.00 in Snow Light Snow
10:55 PM 15.1 °F 0.5 °F 6.1 °F 68% 30.31 in 10.0 mi NW 13.8 mph 26.5 mph 0.00 in   Scattered Clouds
11:04 PM 16.0 °F 1.7 °F 7.0 °F 68% 30.25 in 10.0 mi NW 13.8 mph 25.3 mph N/A   Mostly Cloudy
11:55 PM 14.0 °F -2.0 °F 5.0 °F 67% 30.33 in 9.0 mi NW 16.1 mph 31.1 mph 0.00 in Snow Light Snow